Location: Bremen
(53.0793°N, 8.8017°E)
Time: 19:55:50
(UTC+02:00)

deb Explorer IX - All Passes

Search period start: 23 April 2024 00:00
Search period end: 03 May 2024 00:00
Orbit: 512 x 902 km, 38.7° (Epoch: 22 April)

Date Brightness Start Highest point End Pass type
(mag) Time Alt. Az. Time Alt. Az. Time Alt. Az.
23 Apr - 11:19:53 10° S 11:22:41 14° SSE 11:25:33 10° SE daylight
23 Apr - 13:01:38 10° SW 13:05:54 20° S 13:10:18 10° SE daylight
23 Apr - 14:45:21 10° SW 14:49:16 18° SSW 14:53:14 10° SSE daylight
24 Apr - 12:03:26 10° SSW 12:07:22 19° S 12:11:27 10° SE daylight
24 Apr - 13:46:34 10° SW 13:50:44 19° S 13:54:59 10° SE daylight
24 Apr - 15:31:52 10° SW 15:33:56 12° SSW 15:36:01 10° S daylight
25 Apr - 11:05:29 10° SSW 11:08:50 16° SSE 11:12:21 10° SE daylight
25 Apr - 12:47:58 10° SW 12:52:07 20° S 12:56:26 10° SE daylight
25 Apr - 14:32:13 10° SW 14:35:26 15° SSW 14:38:40 10° SSE daylight
26 Apr - 10:07:59 10° S 10:10:20 13° SSE 10:12:44 10° SE daylight
26 Apr - 11:49:32 10° SW 11:53:29 19° S 11:57:38 10° SE daylight
26 Apr - 13:33:07 10° SW 13:36:49 17° SSW 13:40:37 10° SSE daylight
27 Apr - 10:51:16 10° SSW 10:54:50 18° S 10:58:36 10° SE daylight
27 Apr - 12:34:17 10° SW 12:38:08 18° S 12:42:10 10° SE daylight
27 Apr - 14:19:41 10° SW 14:21:20 11° SSW 14:23:00 10° S daylight
28 Apr - 09:53:18 10° SSW 09:56:12 15° SSE 09:59:14 10° SE daylight
28 Apr - 11:35:37 10° SW 11:39:24 19° S 11:43:25 10° SE daylight
28 Apr - 13:19:50 10° SW 13:22:40 14° SSW 13:25:35 10° S daylight
29 Apr - 08:55:57 10° S 08:57:35 11° SSE 08:59:16 10° SE daylight
29 Apr - 10:37:07 10° SW 10:40:40 18° S 10:44:25 10° SE daylight
29 Apr - 12:20:39 10° SW 12:23:56 16° SSW 12:27:22 10° SSE daylight
30 Apr - 09:38:49 10° SSW 09:41:55 16° S 09:45:11 10° SE daylight
30 Apr - 11:21:43 10° SW 11:25:08 17° S 11:28:45 10° SSE daylight
30 Apr - 13:07:54 10° SSW 13:08:18 10° SSW 13:08:41 10° SSW daylight
01 May - 08:40:51 10° S 08:43:10 13° SSE 08:45:35 10° SE daylight
01 May - 10:22:59 10° SW 10:26:19 17° S 10:29:50 10° SE daylight
01 May - 12:07:16 10° SW 12:09:30 12° SSW 12:11:49 10° S daylight
02 May - 09:24:25 10° SSW 09:27:27 16° S 09:30:41 10° SE daylight
02 May - 11:07:54 10° SW 11:10:39 14° SSW 11:13:32 10° SSE daylight
